Time,TemperatureF,DewpointF,PressureIn,WindDirection,WindDirectionDegrees,WindSpeedMPH,WindSpeedGustMPH,Humidity,HourlyPrecipIn,Conditions,Clouds,dailyrainin,SoftwareType,DateUTC
2013-04-27 00:01:00,74.3,33.0,30.21,North,0,0.0,0.0,22,0.00,CLR,BKN,0.00,WeatherDisplay:10.37,2013-04-27 04:01:00,
2013-04-27 00:02:00,74.3,33.0,30.21,North,0,0.0,0.0,22,0.00,CLR,BKN,0.00,WeatherDisplay:10.37,2013-04-27 04:02:00,
2013-04-27 00:03:00,74.3,33.0,30.21,North,0,0.0,0.0,22,0.00,CLR,BKN,0.00,WeatherDisplay:10.37,2013-04-27 04:03:00,
2013-04-27 00:08:00,74.1,32.8,30.21,North,0,0.0,0.0,22,0.00,CLR,BKN,0.00,WeatherDisplay:10.37,2013-04-27 04:08:00,
2013-04-27 00:13:00,73.9,32.7,30.21,North,0,0.0,0.0,22,0.00,CLR,BKN,0.00,WeatherDisplay:10.37,2013-04-27 04:13:00,
2013-04-27 00:18:00,73.9,33.8,30.21,North,0,0.0,0.0,23,0.00,CLR,BKN,0.00,WeatherDisplay:10.37,2013-04-27 04:18:00,
2013-04-27 00:23:00,73.8,33.6,30.21,North,0,0.0,0.0,23,0.00,CLR,BKN,0.00,WeatherDisplay:10.37,2013-04-27 04:23:00,
2013-04-27 00:28:00,73.8,33.6,30.21,North,0,0.0,0.0,23,0.00,CLR,BKN,0.00,WeatherDisplay:10.37,2013-04-27 04:28:00,
2013-04-27 00:33:00,73.6,33.5,30.21,North,0,0.0,0.0,23,0.00,CLR,BKN,0.00,WeatherDisplay:10.37,2013-04-27 04:33:00,
2013-04-27 00:38:00,73.6,33.5,30.21,North,0,0.0,0.0,23,0.00,CLR,BKN,0.00,WeatherDisplay:10.37,2013-04-27 04:38:00,
2013-04-27 00:43:00,73.4,34.4,30.21,North,0,0.0,0.0,24,0.00,CLR,BKN,0.00,WeatherDisplay:10.37,2013-04-27 04:43:00,
2013-04-27 00:48:00,73.2,35.3,30.21,North,0,0.0,0.0,25,0.00,CLR,BKN,0.00,WeatherDisplay:10.37,2013-04-27 04:48:00,
2013-04-27 00:53:00,73.0,35.1,30.21,North,0,0.0,0.0,25,0.00,CLR,BKN,0.00,WeatherDisplay:10.37,2013-04-27 04:53:00,
2013-04-27 00:58:00,72.9,36.0,30.21,North,0,0.0,0.0,26,0.00,CLR,BKN,0.00,WeatherDisplay:10.37,2013-04-27 04:58:00,
2013-04-27 01:03:00,72.7,35.8,30.21,North,0,0.0,0.0,26,0.00,CLR,BKN,0.00,WeatherDisplay:10.37,2013-04-27 05:03:00,
2013-04-27 01:08:00,72.7,36.8,30.21,North,0,0.0,0.0,27,0.00,CLR,BKN,0.00,WeatherDisplay:10.37,2013-04-27 05:08:00,
2013-04-27 01:13:00,72.5,37.5,30.21,North,0,0.0,0.0,28,0.00,CLR,BKN,0.00,WeatherDisplay:10.37,2013-04-27 05:13:00,
2013-04-27 01:18:00,72.3,38.3,30.21,North,0,0.0,0.0,29,0.00,CLR,BKN,0.00,WeatherDisplay:10.37,2013-04-27 05:18:00,
2013-04-27 01:23:00,72.3,40.0,30.21,North,0,0.0,0.0,31,0.00,CLR,BKN,0.00,WeatherDisplay:10.37,2013-04-27 05:23:00,
2013-04-27 01:28:00,72.3,40.0,30.21,North,0,0.0,0.0,31,0.00,CLR,BKN,0.00,WeatherDisplay:10.37,2013-04-27 05:28:00,
2013-04-27 01:33:00,72.1,40.6,30.21,North,0,0.0,0.0,32,0.00,CLR,BKN,0.00,WeatherDisplay:10.37,2013-04-27 05:33:00,
2013-04-27 01:38:00,72.1,40.6,30.21,North,0,0.0,0.0,32,0.00,CLR,BKN,0.00,WeatherDisplay:10.37,2013-04-27 05:38:00,
2013-04-27 01:43:00,72.1,40.6,30.21,North,0,0.0,0.0,32,0.00,CLR,BKN,0.00,WeatherDisplay:10.37,2013-04-27 05:43:00,
2013-04-27 01:48:00,72.0,40.5,30.21,North,0,0.0,0.0,32,0.00,CLR,BKN,0.00,WeatherDisplay:10.37,2013-04-27 05:48:00,
2013-04-27 01:53:00,71.8,40.3,30.21,North,0,0.0,0.0,32,0.00,CLR,BKN,0.00,WeatherDisplay:10.37,2013-04-27 05:53:00,
2013-04-27 01:58:00,71.8,40.3,30.21,North,0,0.0,0.0,32,0.00,CLR,BKN,0.00,WeatherDisplay:10.37,2013-04-27 05:58:00,
2013-04-27 02:03:00,71.8,41.1,30.21,North,0,0.0,0.0,33,0.00,CLR,BKN,0.00,WeatherDisplay:10.37,2013-04-27 06:03:00,
2013-04-27 02:08:00,71.6,41.0,30.21,North,0,0.0,0.0,33,0.00,CLR,BKN,0.00,WeatherDisplay:10.37,2013-04-27 06:08:00,
2013-04-27 02:13:00,71.4,40.8,30.21,North,0,0.0,0.0,33,0.00,CLR,BKN,0.00,WeatherDisplay:10.37,2013-04-27 06:13:00,
2013-04-27 02:18:00,71.2,40.6,30.21,North,0,0.0,0.0,33,0.00,CLR,BKN,0.00,WeatherDisplay:10.37,2013-04-27 06:18:00,
2013-04-27 02:23:00,71.2,41.4,30.21,North,0,0.0,0.0,34,0.00,CLR,BKN,0.00,WeatherDisplay:10.37,2013-04-27 06:23:00,
2013-04-27 02:28:00,71.2,43.6,30.18,North,0,0.0,0.0,37,0.00,CLR,BKN,0.00,WeatherDisplay:10.37,2013-04-27 06:28:00,
2013-04-27 02:33:00,71.1,43.5,30.18,North,0,0.0,0.0,37,0.00,CLR,BKN,0.00,WeatherDisplay:10.37,2013-04-27 06:33:00,
2013-04-27 02:38:00,71.1,43.5,30.18,North,0,0.0,0.0,37,0.00,CLR,BKN,0.00,WeatherDisplay:10.37,2013-04-27 06:38:00,
2013-04-27 02:43:00,71.1,44.2,30.18,North,0,0.0,0.0,38,0.00,CLR,BKN,0.00,WeatherDisplay:10.37,2013-04-27 06:43:00,
2013-04-27 02:48:00,71.2,46.3,30.18,North,0,0.0,0.0,41,0.00,CLR,BKN,0.00,WeatherDisplay:10.37,2013-04-27 06:48:00,
2013-04-27 02:53:00,71.2,46.3,30.18,North,0,0.0,0.0,41,0.00,CLR,BKN,0.00,WeatherDisplay:10.37,2013-04-27 06:53:00,
2013-04-27 02:58:00,71.4,46.5,30.18,North,0,0.0,0.0,41,0.00,CLR,BKN,0.00,WeatherDisplay:10.37,2013-04-27 06:58:00,
2013-04-27 03:03:00,71.4,45.8,30.18,North,0,0.0,0.0,40,0.00,CLR,BKN,0.00,WeatherDisplay:10.37,2013-04-27 07:03:00,
2013-04-27 03:08:00,71.2,45.7,30.18,North,0,0.0,0.0,40,0.00,CLR,BKN,0.00,WeatherDisplay:10.37,2013-04-27 07:08:00,
2013-04-27 03:13:00,71.1,46.2,30.18,North,0,0.0,0.0,41,0.00,CLR,BKN,0.00,WeatherDisplay:10.37,2013-04-27 07:13:00,
2013-04-27 03:18:00,70.9,46.0,30.18,North,0,0.0,0.0,41,0.00,CLR,BKN,0.00,WeatherDisplay:10.37,2013-04-27 07:18:00,
2013-04-27 03:23:00,70.5,45.0,30.18,North,0,0.0,0.0,40,0.00,CLR,BKN,0.00,WeatherDisplay:10.37,2013-04-27 07:23:00,
2013-04-27 03:28:00,70.2,44.7,30.18,North,0,0.0,0.0,40,0.00,CLR,BKN,0.00,WeatherDisplay:10.37,2013-04-27 07:28:00,
2013-04-27 03:33:00,70.0,44.5,30.18,North,0,0.0,0.0,40,0.00,CLR,BKN,0.00,WeatherDisplay:10.37,2013-04-27 07:33:00,
2013-04-27 03:38:00,69.6,44.9,30.18,North,0,0.0,0.0,41,0.00,CLR,BKN,0.00,WeatherDisplay:10.37,2013-04-27 07:38:00,
2013-04-27 03:43:00,69.4,44.7,30.18,North,0,0.0,0.0,41,0.00,CLR,BKN,0.00,WeatherDisplay:10.37,2013-04-27 07:43:00,
2013-04-27 03:48:00,69.3,45.8,30.18,North,0,0.0,0.0,43,0.00,CLR,BKN,0.00,WeatherDisplay:10.37,2013-04-27 07:48:00,
2013-04-27 03:53:00,69.1,46.2,30.18,North,0,0.0,0.0,44,0.00,CLR,BKN,0.00,WeatherDisplay:10.37,2013-04-27 07:53:00,
2013-04-27 03:58:00,68.9,46.1,30.15,North,0,0.0,0.0,44,0.00,CLR,BKN,0.00,WeatherDisplay:10.37,2013-04-27 07:58:00,
2013-04-27 04:03:00,68.7,45.9,30.15,North,0,0.0,0.0,44,0.00,CLR,BKN,0.00,WeatherDisplay:10.37,2013-04-27 08:03:00,
2013-04-27 04:08:00,68.7,46.5,30.15,North,0,0.0,0.0,45,0.00,CLR,BKN,0.00,WeatherDisplay:10.37,2013-04-27 08:08:00,
2013-04-27 04:13:00,68.4,46.8,30.18,North,0,0.0,0.0,46,0.00,CLR,BKN,0.00,WeatherDisplay:10.37,2013-04-27 08:13:00,
2013-04-27 04:18:00,68.4,47.3,30.18,North,0,0.0,0.0,47,0.00,CLR,BKN,0.00,WeatherDisplay:10.37,2013-04-27 08:18:00,
2013-04-27 04:23:00,68.4,49.0,30.18,North,0,0.0,0.0,50,0.00,CLR,BKN,0.00,WeatherDisplay:10.37,2013-04-27 08:23:00,
2013-04-27 04:28:00,68.4,50.0,30.15,North,0,0.0,0.0,52,0.00,CLR,BKN,0.00,WeatherDisplay:10.37,2013-04-27 08:28:00,
2013-04-27 04:33:00,68.2,50.4,30.15,North,0,0.0,0.0,53,0.00,CLR,BKN,0.00,WeatherDisplay:10.37,2013-04-27 08:33:00,
2013-04-27 04:38:00,68.0,50.7,30.15,North,0,0.0,0.0,54,0.00,CLR,BKN,0.00,WeatherDisplay:10.37,2013-04-27 08:38:00,
2013-04-27 04:43:00,68.0,51.7,30.15,North,0,0.0,0.0,56,0.00,CLR,BKN,0.00,WeatherDisplay:10.37,2013-04-27 08:43:00,
2013-04-27 04:48:00,68.0,52.7,30.15,North,0,0.0,0.0,58,0.00,CLR,BKN,0.00,WeatherDisplay:10.37,2013-04-27 08:48:00,
2013-04-27 04:53:00,67.8,53.0,30.15,North,0,0.0,0.0,59,0.00,CLR,BKN,0.00,WeatherDisplay:10.37,2013-04-27 08:53:00,
2013-04-27 04:58:00,67.6,53.7,30.15,North,0,0.0,0.0,61,0.00,CLR,BKN,0.00,WeatherDisplay:10.37,2013-04-27 08:58:00,
2013-04-27 05:03:00,67.6,54.2,30.15,North,0,0.0,0.0,62,0.00,CLR,BKN,0.00,WeatherDisplay:10.37,2013-04-27 09:03:00,
2013-04-27 05:08:00,67.5,54.4,30.15,North,0,0.0,0.0,63,0.00,CLR,BKN,0.00,WeatherDisplay:10.37,2013-04-27 09:08:00,
2013-04-27 05:13:00,67.3,54.3,30.15,North,0,0.0,0.0,63,0.00,CLR,BKN,0.00,WeatherDisplay:10.37,2013-04-27 09:13:00,
2013-04-27 05:18:00,67.3,54.3,30.15,North,0,0.0,0.0,63,0.00,CLR,BKN,0.00,WeatherDisplay:10.37,2013-04-27 09:18:00,
2013-04-27 05:23:00,67.3,54.7,30.15,North,0,0.0,0.0,64,0.00,CLR,BKN,0.00,WeatherDisplay:10.37,2013-04-27 09:23:00,
2013-04-27 05:28:00,67.3,55.1,30.15,North,0,0.0,0.0,65,0.00,CLR,BKN,0.00,WeatherDisplay:10.37,2013-04-27 09:28:00,
2013-04-27 05:33:00,67.3,55.9,30.15,North,0,0.0,0.0,67,0.00,CLR,BKN,0.00,WeatherDisplay:10.37,2013-04-27 09:33:00,
2013-04-27 05:38:00,67.3,56.8,30.15,North,0,0.0,0.0,69,0.00,CLR,BKN,0.00,WeatherDisplay:10.37,2013-04-27 09:38:00,
2013-04-27 05:43:00,67.1,56.6,30.15,North,0,0.0,0.0,69,0.00,CLR,BKN,0.00,WeatherDisplay:10.37,2013-04-27 09:43:00,
2013-04-27 05:48:00,67.1,56.6,30.15,North,0,0.0,0.0,69,0.00,CLR,BKN,0.00,WeatherDisplay:10.37,2013-04-27 09:48:00,
2013-04-27 05:53:00,67.1,57.0,30.15,North,0,0.0,0.0,70,0.00,CLR,BKN,0.00,WeatherDisplay:10.37,2013-04-27 09:53:00,
2013-04-27 05:58:00,66.9,56.8,30.15,North,0,0.0,0.0,70,0.00,CLR,BKN,0.00,WeatherDisplay:10.37,2013-04-27 09:58:00,
2013-04-27 06:03:00,67.1,58.5,30.15,North,0,0.0,0.0,74,0.00,CLR,BKN,0.00,WeatherDisplay:10.37,2013-04-27 10:03:00,
2013-04-27 06:08:00,67.1,58.9,30.15,North,0,0.0,0.0,75,0.00,CLR,BKN,0.00,WeatherDisplay:10.37,2013-04-27 10:08:00,
2013-04-27 06:13:00,67.1,60.0,30.15,North,0,0.0,0.0,78,0.00,CLR,BKN,0.00,WeatherDisplay:10.37,2013-04-27 10:13:00,
2013-04-27 06:18:00,67.1,60.0,30.15,North,0,0.0,0.0,78,0.00,CLR,BKN,0.00,WeatherDisplay:10.37,2013-04-27 10:18:00,
2013-04-27 06:23:00,66.9,59.8,30.15,North,0,0.0,0.0,78,0.00,CLR,BKN,0.00,WeatherDisplay:10.37,2013-04-27 10:23:00,
2013-04-27 06:28:00,66.9,60.2,30.15,North,0,0.0,0.0,79,0.00,CLR,BKN,0.00,WeatherDisplay:10.37,2013-04-27 10:28:00,
2013-04-27 06:33:00,66.9,60.5,30.15,North,0,0.0,0.0,80,0.00,CLR,BKN,0.00,WeatherDisplay:10.37,2013-04-27 10:33:00,
2013-04-27 06:38:00,66.9,60.9,30.15,North,0,0.0,0.0,81,0.00,CLR,BKN,0.00,WeatherDisplay:10.37,2013-04-27 10:38:00,
2013-04-27 06:43:00,66.9,60.5,30.15,North,0,0.0,0.0,80,0.00,CLR,BKN,0.00,WeatherDisplay:10.37,2013-04-27 10:43:00,
2013-04-27 06:48:00,66.9,60.9,30.15,North,0,0.0,0.0,81,0.00,CLR,BKN,0.00,WeatherDisplay:10.37,2013-04-27 10:48:00,
2013-04-27 06:53:00,66.7,60.7,30.15,North,0,0.0,0.0,81,0.00,CLR,BKN,0.00,WeatherDisplay:10.37,2013-04-27 10:53:00,
2013-04-27 06:58:00,66.7,61.1,30.15,North,0,0.0,0.0,82,0.00,CLR,BKN,0.00,WeatherDisplay:10.37,2013-04-27 10:58:00,
2013-04-27 07:03:00,66.9,61.2,30.18,North,0,0.0,0.0,82,0.00,CLR,BKN,0.00,WeatherDisplay:10.37,2013-04-27 11:03:00,
2013-04-27 07:08:00,66.9,61.6,30.18,North,0,0.0,0.0,83,0.00,CLR,BKN,0.00,WeatherDisplay:10.37,2013-04-27 11:08:00,
2013-04-27 07:13:00,66.9,61.9,30.18,North,0,0.0,0.0,84,0.00,CLR,BKN,0.00,WeatherDisplay:10.37,2013-04-27 11:13:00,
2013-04-27 07:18:00,66.9,62.3,30.18,North,0,0.0,0.0,85,0.00,CLR,BKN,0.00,WeatherDisplay:10.37,2013-04-27 11:18:00,
2013-04-27 07:23:00,67.1,62.8,30.18,North,0,0.0,0.0,86,0.00,CLR,BKN,0.00,WeatherDisplay:10.37,2013-04-27 11:23:00,
2013-04-27 07:28:00,67.3,63.3,30.18,North,0,0.0,0.0,87,0.00,CLR,BKN,0.00,WeatherDisplay:10.37,2013-04-27 11:28:00,
2013-04-27 07:33:00,67.5,63.5,30.18,North,0,0.0,0.0,87,0.00,CLR,BKN,0.00,WeatherDisplay:10.37,2013-04-27 11:33:00,
2013-04-27 07:38:00,67.6,64.0,30.18,North,0,0.0,0.0,88,0.00,CLR,BKN,0.00,WeatherDisplay:10.37,2013-04-27 11:38:00,
2013-04-27 07:43:00,67.8,64.1,30.18,North,0,0.0,0.0,88,0.00,CLR,BKN,0.00,WeatherDisplay:10.37,2013-04-27 11:43:00,
2013-04-27 07:50:00,67.8,63.8,30.18,North,0,0.0,0.0,87,0.00,CLR,BKN,0.00,WeatherDisplay:10.37,2013-04-27 11:50:00,
2013-04-27 07:55:00,67.8,63.1,30.18,North,0,0.0,0.0,85,0.00,CLR,BKN,0.00,WeatherDisplay:10.37,2013-04-27 11:55:00,
2013-04-27 08:00:00,68.0,63.0,30.18,North,0,0.0,0.0,84,0.00,CLR,BKN,0.00,WeatherDisplay:10.37,2013-04-27 12:00:00,
2013-04-27 08:05:00,68.2,63.2,30.18,North,0,0.0,0.0,84,0.00,CLR,BKN,0.00,WeatherDisplay:10.37,2013-04-27 12:05:00,
2013-04-27 08:10:00,68.7,63.7,30.18,North,0,0.0,0.0,84,0.00,CLR,BKN,0.00,WeatherDisplay:10.37,2013-04-27 12:10:00,
2013-04-27 08:15:00,68.9,63.2,30.18,North,0,0.0,0.0,82,0.00,CLR,BKN,0.00,WeatherDisplay:10.37,2013-04-27 12:15:00,
2013-04-27 08:20:00,69.6,63.9,30.18,North,0,0.0,0.0,82,0.00,CLR,BKN,0.00,WeatherDisplay:10.37,2013-04-27 12:20:00,
2013-04-27 08:25:00,70.5,64.0,30.18,North,0,0.0,0.0,80,0.00,CLR,BKN,0.00,WeatherDisplay:10.37,2013-04-27 12:25:00,
2013-04-27 08:30:00,70.9,60.2,30.18,North,0,0.0,0.0,69,0.00,CLR,BKN,0.00,WeatherDisplay:10.37,2013-04-27 12:30:00,
2013-04-27 08:35:00,71.1,56.5,30.18,North,0,0.0,0.0,60,0.00,CLR,BKN,0.00,WeatherDisplay:10.37,2013-04-27 12:35:00,
2013-04-27 08:40:00,71.8,54.2,30.18,North,0,0.0,0.0,54,0.00,CLR,BKN,0.00,WeatherDisplay:10.37,2013-04-27 12:40:00,
2013-04-27 08:46:00,72.7,53.5,30.18,North,0,0.0,0.0,51,0.00,CLR,BKN,0.00,WeatherDisplay:10.37,2013-04-27 12:46:00,
2013-04-27 08:51:00,73.2,49.4,30.18,North,0,0.0,0.0,43,0.00,CLR,BKN,0.00,WeatherDisplay:10.37,2013-04-27 12:51:00,
2013-04-27 08:56:00,73.9,49.4,30.18,North,0,0.0,0.0,42,0.00,CLR,BKN,0.00,WeatherDisplay:10.37,2013-04-27 12:56:00,
2013-04-27 09:01:00,73.9,46.0,30.18,North,0,0.0,0.0,37,0.00,CLR,BKN,0.00,WeatherDisplay:10.37,2013-04-27 13:01:00,
2013-04-27 09:06:00,74.3,42.5,30.18,North,0,0.0,0.0,32,0.00,CLR,BKN,0.00,WeatherDisplay:10.37,2013-04-27 13:06:00,
2013-04-27 09:11:00,74.7,42.0,30.18,North,0,0.0,0.0,31,0.00,CLR,BKN,0.00,WeatherDisplay:10.37,2013-04-27 13:11:00,
2013-04-27 09:16:00,75.4,42.6,30.18,North,0,0.0,0.0,31,0.00,CLR,BKN,0.00,WeatherDisplay:10.37,2013-04-27 13:16:00,
2013-04-27 09:21:00,75.4,40.0,30.18,North,0,0.0,0.0,28,0.00,CLR,BKN,0.00,WeatherDisplay:10.37,2013-04-27 13:21:00,
2013-04-27 09:26:00,75.4,37.1,30.18,North,0,0.0,0.0,25,0.00,CLR,BKN,0.00,WeatherDisplay:10.37,2013-04-27 13:26:00,
2013-04-27 09:31:00,75.9,37.6,30.18,North,0,0.0,0.0,25,0.00,CLR,BKN,0.00,WeatherDisplay:10.37,2013-04-27 13:31:00,
2013-04-27 09:36:00,76.6,37.1,30.18,North,0,0.0,0.0,24,0.00,CLR,BKN,0.00,WeatherDisplay:10.37,2013-04-27 13:36:00,
2013-04-27 09:41:00,76.8,35.1,30.18,North,0,0.0,0.0,22,0.00,CLR,BKN,0.00,WeatherDisplay:10.37,2013-04-27 13:41:00,
2013-04-27 09:48:00,76.6,33.8,30.18,North,0,0.0,0.0,21,0.00,CLR,BKN,0.00,WeatherDisplay:10.37,2013-04-27 13:48:00,
2013-04-27 09:53:00,77.2,34.2,30.18,North,0,0.0,0.0,21,0.00,CLR,BKN,0.00,WeatherDisplay:10.37,2013-04-27 13:53:00,
2013-04-27 09:58:00,77.2,34.2,30.18,North,0,0.0,0.0,21,0.00,CLR,BKN,0.00,WeatherDisplay:10.37,2013-04-27 13:58:00,
2013-04-27 10:03:00,77.4,33.1,30.18,North,0,0.0,0.0,20,0.00,CLR,BKN,0.00,WeatherDisplay:10.37,2013-04-27 14:03:00,
2013-04-27 10:08:00,77.7,33.4,30.18,North,0,0.0,0.0,20,0.00,CLR,BKN,0.00,WeatherDisplay:10.37,2013-04-27 14:08:00,
2013-04-27 10:13:00,78.6,34.2,30.18,North,0,0.0,0.0,20,0.00,CLR,BKN,0.00,WeatherDisplay:10.37,2013-04-27 14:13:00,
2013-04-27 10:18:00,78.6,34.2,30.18,North,0,0.0,0.0,20,0.00,CLR,BKN,0.00,WeatherDisplay:10.37,2013-04-27 14:18:00,
2013-04-27 10:23:00,78.8,30.3,30.18,North,0,0.0,0.0,17,0.00,CLR,BKN,0.00,WeatherDisplay:10.37,2013-04-27 14:23:00,
2013-04-27 10:28:00,78.8,27.2,30.18,North,0,0.0,0.0,15,0.00,CLR,BKN,0.00,WeatherDisplay:10.37,2013-04-27 14:28:00,
2013-04-27 10:33:00,79.2,27.5,30.18,North,0,0.0,0.0,15,0.00,CLR,BKN,0.00,WeatherDisplay:10.37,2013-04-27 14:33:00,
2013-04-27 10:38:00,80.1,28.2,30.18,North,0,0.0,0.0,15,0.00,CLR,BKN,0.00,WeatherDisplay:10.37,2013-04-27 14:38:00,
2013-04-27 10:43:00,79.3,27.6,30.18,North,0,0.0,0.0,15,0.00,CLR,BKN,0.00,WeatherDisplay:10.37,2013-04-27 14:43:00,
2013-04-27 10:48:00,79.2,27.5,30.18,North,0,0.0,0.0,15,0.00,CLR,BKN,0.00,WeatherDisplay:10.37,2013-04-27 14:48:00,
2013-04-27 10:53:00,79.5,27.8,30.18,North,0,0.0,0.0,15,0.00,CLR,BKN,0.00,WeatherDisplay:10.37,2013-04-27 14:53:00,
2013-04-27 10:58:00,79.7,27.9,30.18,North,0,0.0,0.0,15,0.00,CLR,BKN,0.00,WeatherDisplay:10.37,2013-04-27 14:58:00,
2013-04-27 11:03:00,79.9,28.1,30.18,North,0,0.0,0.0,15,0.00,CLR,BKN,0.00,WeatherDisplay:10.37,2013-04-27 15:03:00,
2013-04-27 11:08:00,80.4,28.5,30.18,North,0,0.0,0.0,15,0.00,CLR,BKN,0.00,WeatherDisplay:10.37,2013-04-27 15:08:00,
2013-04-27 11:13:00,80.6,27.0,30.18,North,0,0.0,0.0,14,0.00,CLR,BKN,0.00,WeatherDisplay:10.37,2013-04-27 15:13:00,
2013-04-27 11:18:00,80.8,27.1,30.18,North,0,0.0,0.0,14,0.00,CLR,BKN,0.00,WeatherDisplay:10.37,2013-04-27 15:18:00,
2013-04-27 11:23:00,80.8,23.4,30.18,North,0,0.0,0.0,12,0.00,CLR,BKN,0.00,WeatherDisplay:10.37,2013-04-27 15:23:00,
2013-04-27 11:28:00,80.8,27.1,30.18,North,0,0.0,0.0,14,0.00,CLR,BKN,0.00,WeatherDisplay:10.37,2013-04-27 15:28:00,
2013-04-27 11:33:00,81.0,27.3,30.18,North,0,0.0,0.0,14,0.00,CLR,BKN,0.00,WeatherDisplay:10.37,2013-04-27 15:33:00,
2013-04-27 11:38:00,80.8,23.4,30.18,North,0,0.0,0.0,12,0.00,CLR,BKN,0.00,WeatherDisplay:10.37,2013-04-27 15:38:00,
2013-04-27 11:43:00,81.3,27.5,30.18,North,0,0.0,0.0,14,0.00,CLR,BKN,0.00,WeatherDisplay:10.37,2013-04-27 15:43:00,
2013-04-27 11:48:00,81.1,23.7,30.18,North,0,0.0,0.0,12,0.00,CLR,BKN,0.00,WeatherDisplay:10.37,2013-04-27 15:48:00,
2013-04-27 11:53:00,81.3,23.8,30.18,North,0,0.0,0.0,12,0.00,CLR,BKN,0.00,WeatherDisplay:10.37,2013-04-27 15:53:00,
2013-04-27 11:58:00,81.7,24.1,30.18,North,0,0.0,0.0,12,0.00,CLR,BKN,0.00,WeatherDisplay:10.37,2013-04-27 15:58:00,
2013-04-27 12:03:00,82.9,28.8,30.18,North,0,0.0,0.0,14,0.00,CLR,BKN,0.00,WeatherDisplay:10.37,2013-04-27 16:03:00,
2013-04-27 12:09:00,82.6,22.7,30.18,North,0,0.0,0.0,11,0.00,CLR,BKN,0.00,WeatherDisplay:10.37,2013-04-27 16:09:00,
2013-04-27 12:14:00,82.9,23.0,30.18,North,0,0.0,0.0,11,0.00,CLR,BKN,0.00,WeatherDisplay:10.37,2013-04-27 16:14:00,
2013-04-27 12:19:00,83.7,23.6,30.18,North,0,0.0,0.0,11,0.00,CLR,BKN,0.00,WeatherDisplay:10.37,2013-04-27 16:19:00,
2013-04-27 12:24:00,82.8,22.9,30.18,North,0,0.0,0.0,11,0.00,CLR,BKN,0.00,WeatherDisplay:10.37,2013-04-27 16:24:00,
2013-04-27 12:29:00,83.7,23.6,30.18,North,0,0.0,0.0,11,0.00,CLR,BKN,0.00,WeatherDisplay:10.37,2013-04-27 16:29:00,
2013-04-27 12:34:00,83.8,23.7,30.18,North,0,0.0,0.0,11,0.00,CLR,BKN,0.00,WeatherDisplay:10.37,2013-04-27 16:34:00,
2013-04-27 12:39:00,83.5,23.4,30.18,North,0,0.0,0.0,11,0.00,CLR,BKN,0.00,WeatherDisplay:10.37,2013-04-27 16:39:00,
2013-04-27 12:44:00,84.2,24.0,30.18,North,0,0.0,0.0,11,0.00,CLR,BKN,0.00,WeatherDisplay:10.37,2013-04-27 16:44:00,
2013-04-27 12:49:00,83.3,23.3,30.18,North,0,0.0,0.0,11,0.00,CLR,BKN,0.00,WeatherDisplay:10.37,2013-04-27 16:49:00,
2013-04-27 12:54:00,84.6,24.2,30.18,North,0,0.0,0.0,11,0.00,CLR,BKN,0.00,WeatherDisplay:10.37,2013-04-27 16:54:00,
2013-04-27 12:59:00,84.6,24.2,30.18,North,0,0.0,0.0,11,0.00,CLR,BKN,0.00,WeatherDisplay:10.37,2013-04-27 16:59:00,
2013-04-27 13:04:00,84.9,24.5,30.18,North,0,0.0,0.0,11,0.00,CLR,BKN,0.00,WeatherDisplay:10.37,2013-04-27 17:04:00,
2013-04-27 13:09:00,84.4,24.1,30.18,North,0,0.0,0.0,11,0.00,CLR,BKN,0.00,WeatherDisplay:10.37,2013-04-27 17:09:00,
2013-04-27 13:14:00,83.7,23.6,30.15,North,0,0.0,0.0,11,0.00,CLR,BKN,0.00,WeatherDisplay:10.37,2013-04-27 17:14:00,
2013-04-27 13:19:00,83.8,23.7,30.15,North,0,0.0,0.0,11,0.00,CLR,BKN,0.00,WeatherDisplay:10.37,2013-04-27 17:19:00,
2013-04-27 13:24:00,83.3,23.3,30.15,North,0,0.0,0.0,11,0.00,CLR,BKN,0.00,WeatherDisplay:10.37,2013-04-27 17:24:00,
2013-04-27 13:29:00,83.5,23.4,30.15,North,0,0.0,0.0,11,0.00,CLR,BKN,0.00,WeatherDisplay:10.37,2013-04-27 17:29:00,
2013-04-27 13:34:00,82.9,23.0,30.15,North,0,0.0,0.0,11,0.00,CLR,BKN,0.00,WeatherDisplay:10.37,2013-04-27 17:34:00,
2013-04-27 13:39:00,83.3,23.3,30.15,North,0,0.0,0.0,11,0.00,CLR,BKN,0.00,WeatherDisplay:10.37,2013-04-27 17:39:00,
2013-04-27 13:44:00,84.0,23.8,30.15,North,0,0.0,0.0,11,0.00,CLR,BKN,0.00,WeatherDisplay:10.37,2013-04-27 17:44:00,
2013-04-27 13:49:00,84.9,24.5,30.15,North,0,0.0,0.0,11,0.00,CLR,BKN,0.00,WeatherDisplay:10.37,2013-04-27 17:49:00,
2013-04-27 13:54:00,85.3,24.8,30.15,North,0,0.0,0.0,11,0.00,CLR,BKN,0.00,WeatherDisplay:10.37,2013-04-27 17:54:00,
2013-04-27 13:59:00,84.7,24.4,30.15,North,0,0.0,0.0,11,0.00,CLR,BKN,0.00,WeatherDisplay:10.37,2013-04-27 17:59:00,
2013-04-27 14:04:00,84.2,24.0,30.15,North,0,0.0,0.0,11,0.00,CLR,BKN,0.00,WeatherDisplay:10.37,2013-04-27 18:04:00,
2013-04-27 14:09:00,85.1,24.7,30.15,North,0,0.0,0.0,11,0.00,CLR,BKN,0.00,WeatherDisplay:10.37,2013-04-27 18:09:00,
2013-04-27 14:14:00,85.3,24.8,30.15,North,0,0.0,0.0,11,0.00,CLR,BKN,0.00,WeatherDisplay:10.37,2013-04-27 18:14:00,
2013-04-27 14:19:00,85.6,25.1,30.15,North,0,0.0,0.0,11,0.00,CLR,BKN,0.00,WeatherDisplay:10.37,2013-04-27 18:19:00,
2013-04-27 14:24:00,86.5,25.8,30.15,North,0,0.0,0.0,11,0.00,CLR,BKN,0.00,WeatherDisplay:10.37,2013-04-27 18:24:00,
2013-04-27 14:29:00,86.2,25.5,30.15,North,0,0.0,0.0,11,0.00,CLR,BKN,0.00,WeatherDisplay:10.37,2013-04-27 18:29:00,
2013-04-27 14:34:00,86.5,25.8,30.15,North,0,0.0,0.0,11,0.00,CLR,BKN,0.00,WeatherDisplay:10.37,2013-04-27 18:34:00,
2013-04-27 14:39:00,86.4,25.6,30.15,North,0,0.0,0.0,11,0.00,CLR,BKN,0.00,WeatherDisplay:10.37,2013-04-27 18:39:00,
2013-04-27 14:44:00,86.2,25.5,30.12,North,0,0.0,0.0,11,0.00,CLR,BKN,0.00,WeatherDisplay:10.37,2013-04-27 18:44:00,
2013-04-27 14:49:00,86.0,25.4,30.12,North,0,0.0,0.0,11,0.00,CLR,BKN,0.00,WeatherDisplay:10.37,2013-04-27 18:49:00,
2013-04-27 14:54:00,86.2,25.5,30.12,North,0,0.0,0.0,11,0.00,CLR,BKN,0.00,WeatherDisplay:10.37,2013-04-27 18:54:00,
2013-04-27 14:59:00,86.5,25.8,30.12,North,0,0.0,0.0,11,0.00,CLR,BKN,0.00,WeatherDisplay:10.37,2013-04-27 18:59:00,
2013-04-27 15:04:00,86.5,25.8,30.12,North,0,0.0,0.0,11,0.00,CLR,BKN,0.00,WeatherDisplay:10.37,2013-04-27 19:04:00,
2013-04-27 15:09:00,86.4,25.6,30.12,North,0,0.0,0.0,11,0.00,CLR,BKN,0.00,WeatherDisplay:10.37,2013-04-27 19:09:00,
2013-04-27 15:14:00,87.1,26.2,30.12,North,0,0.0,0.0,11,0.00,CLR,BKN,0.00,WeatherDisplay:10.37,2013-04-27 19:14:00,
2013-04-27 15:19:00,86.5,25.8,30.12,North,0,0.0,0.0,11,0.00,CLR,BKN,0.00,WeatherDisplay:10.37,2013-04-27 19:19:00,
2013-04-27 15:24:00,85.3,24.8,30.12,North,0,0.0,0.0,11,0.00,CLR,BKN,0.00,WeatherDisplay:10.37,2013-04-27 19:24:00,
2013-04-27 15:29:00,86.7,25.9,30.12,North,0,0.0,0.0,11,0.00,CLR,BKN,0.00,WeatherDisplay:10.37,2013-04-27 19:29:00,
2013-04-27 15:34:00,86.5,25.8,30.12,North,0,0.0,0.0,11,0.00,CLR,BKN,0.00,WeatherDisplay:10.37,2013-04-27 19:34:00,
2013-04-27 15:39:00,87.1,26.2,30.12,North,0,0.0,0.0,11,0.00,CLR,BKN,0.00,WeatherDisplay:10.37,2013-04-27 19:39:00,
2013-04-27 15:44:00,86.9,26.0,30.09,North,0,0.0,0.0,11,0.00,CLR,BKN,0.00,WeatherDisplay:10.37,2013-04-27 19:44:00,
2013-04-27 15:49:00,87.1,26.2,30.09,North,0,0.0,0.0,11,0.00,CLR,BKN,0.00,WeatherDisplay:10.37,2013-04-27 19:49:00,
2013-04-27 15:54:00,86.0,25.4,30.09,North,0,0.0,0.0,11,0.00,CLR,BKN,0.00,WeatherDisplay:10.37,2013-04-27 19:54:00,
2013-04-27 15:59:00,86.4,25.6,30.09,North,0,0.0,0.0,11,0.00,CLR,BKN,0.00,WeatherDisplay:10.37,2013-04-27 19:59:00,
2013-04-27 16:04:00,86.9,26.0,30.09,North,0,0.0,0.0,11,0.00,CLR,BKN,0.00,WeatherDisplay:10.37,2013-04-27 20:04:00,
2013-04-27 16:09:00,86.7,25.9,30.09,North,0,0.0,0.0,11,0.00,CLR,BKN,0.00,WeatherDisplay:10.37,2013-04-27 20:09:00,
2013-04-27 16:14:00,85.8,25.2,30.09,North,0,0.0,0.0,11,0.00,CLR,BKN,0.00,WeatherDisplay:10.37,2013-04-27 20:14:00,
2013-04-27 16:19:00,85.8,25.2,30.09,North,0,0.0,0.0,11,0.00,CLR,BKN,0.00,WeatherDisplay:10.37,2013-04-27 20:19:00,
2013-04-27 16:24:00,86.0,25.4,30.09,North,0,0.0,0.0,11,0.00,CLR,BKN,0.00,WeatherDisplay:10.37,2013-04-27 20:24:00,
2013-04-27 16:29:00,85.3,24.8,30.09,North,0,0.0,0.0,11,0.00,CLR,BKN,0.00,WeatherDisplay:10.37,2013-04-27 20:29:00,
2013-04-27 16:34:00,86.0,25.4,30.09,North,0,0.0,0.0,11,0.00,CLR,BKN,0.00,WeatherDisplay:10.37,2013-04-27 20:34:00,
2013-04-27 16:39:00,86.0,25.4,30.09,North,0,0.0,0.0,11,0.00,CLR,BKN,0.00,WeatherDisplay:10.37,2013-04-27 20:39:00,
2013-04-27 16:44:00,86.0,25.4,30.09,North,0,0.0,0.0,11,0.00,CLR,BKN,0.00,WeatherDisplay:10.37,2013-04-27 20:44:00,
2013-04-27 16:49:00,86.0,25.4,30.09,North,0,0.0,0.0,11,0.00,CLR,BKN,0.00,WeatherDisplay:10.37,2013-04-27 20:49:00,
2013-04-27 16:54:00,85.8,25.2,30.09,North,0,0.0,0.0,11,0.00,CLR,BKN,0.00,WeatherDisplay:10.37,2013-04-27 20:54:00,
2013-04-27 16:59:00,85.5,24.9,30.06,North,0,0.0,0.0,11,0.00,CLR,BKN,0.00,WeatherDisplay:10.37,2013-04-27 20:59:00,
2013-04-27 17:04:00,85.8,25.2,30.06,North,0,0.0,0.0,11,0.00,CLR,BKN,0.00,WeatherDisplay:10.37,2013-04-27 21:04:00,
2013-04-27 17:09:00,86.0,25.4,30.06,North,0,0.0,0.0,11,0.00,CLR,BKN,0.00,WeatherDisplay:10.37,2013-04-27 21:09:00,
2013-04-27 17:14:00,85.8,25.2,30.09,North,0,0.0,0.0,11,0.00,CLR,BKN,0.00,WeatherDisplay:10.37,2013-04-27 21:14:00,
2013-04-27 17:19:00,85.3,24.8,30.09,North,0,0.0,0.0,11,0.00,CLR,BKN,0.00,WeatherDisplay:10.37,2013-04-27 21:19:00,
2013-04-27 17:24:00,85.1,24.7,30.09,North,0,0.0,0.0,11,0.00,CLR,BKN,0.00,WeatherDisplay:10.37,2013-04-27 21:24:00,
2013-04-27 17:29:00,85.1,24.7,30.09,North,0,0.0,0.0,11,0.00,CLR,BKN,0.00,WeatherDisplay:10.37,2013-04-27 21:29:00,
2013-04-27 17:34:00,85.1,24.7,30.09,North,0,0.0,0.0,11,0.00,CLR,BKN,0.00,WeatherDisplay:10.37,2013-04-27 21:34:00,
2013-04-27 17:39:00,84.7,24.4,30.09,North,0,0.0,0.0,11,0.00,CLR,BKN,0.00,WeatherDisplay:10.37,2013-04-27 21:39:00,
2013-04-27 17:44:00,85.3,24.8,30.06,North,0,0.0,0.0,11,0.00,CLR,BKN,0.00,WeatherDisplay:10.37,2013-04-27 21:44:00,
2013-04-27 17:49:00,85.1,24.7,30.06,North,0,0.0,0.0,11,0.00,CLR,BKN,0.00,WeatherDisplay:10.37,2013-04-27 21:49:00,
2013-04-27 17:54:00,84.9,24.5,30.06,North,0,0.0,0.0,11,0.00,CLR,BKN,0.00,WeatherDisplay:10.37,2013-04-27 21:54:00,
2013-04-27 17:59:00,85.0,24.6,30.06,North,0,0.0,0.0,11,0.00,CLR,BKN,0.00,WeatherDisplay:10.37,2013-04-27 21:59:00,
2013-04-27 18:04:00,84.9,24.5,30.06,North,0,0.0,0.0,11,0.00,CLR,BKN,0.00,WeatherDisplay:10.37,2013-04-27 22:04:00,
2013-04-27 18:09:00,84.7,24.4,30.06,North,0,0.0,0.0,11,0.00,CLR,BKN,0.00,WeatherDisplay:10.37,2013-04-27 22:09:00,
2013-04-27 18:14:00,84.5,24.2,30.06,North,0,0.0,0.0,11,0.00,CLR,BKN,0.00,WeatherDisplay:10.37,2013-04-27 22:14:00,
2013-04-27 18:19:00,84.4,24.1,30.06,North,0,0.0,0.0,11,0.00,CLR,BKN,0.00,WeatherDisplay:10.37,2013-04-27 22:19:00,
2013-04-27 18:24:00,84.4,24.1,30.06,North,0,0.0,0.0,11,0.00,CLR,BKN,0.00,WeatherDisplay:10.37,2013-04-27 22:24:00,
2013-04-27 18:29:00,84.2,24.0,30.06,North,0,0.0,0.0,11,0.00,CLR,BKN,0.00,WeatherDisplay:10.37,2013-04-27 22:29:00,
2013-04-27 18:34:00,84.0,23.8,30.06,North,0,0.0,0.0,11,0.00,CLR,BKN,0.00,WeatherDisplay:10.37,2013-04-27 22:34:00,
2013-04-27 18:39:00,83.7,23.6,30.06,North,0,0.0,0.0,11,0.00,CLR,BKN,0.00,WeatherDisplay:10.37,2013-04-27 22:39:00,
2013-04-27 18:44:00,83.5,23.4,30.06,North,0,0.0,0.0,11,0.00,CLR,BKN,0.00,WeatherDisplay:10.37,2013-04-27 22:44:00,
2013-04-27 18:49:00,83.5,23.4,30.06,North,0,0.0,0.0,11,0.00,CLR,BKN,0.00,WeatherDisplay:10.37,2013-04-27 22:49:00,
2013-04-27 18:54:00,83.3,23.3,30.06,North,0,0.0,0.0,11,0.00,CLR,BKN,0.00,WeatherDisplay:10.37,2013-04-27 22:54:00,
2013-04-27 18:59:00,83.1,23.1,30.06,North,0,0.0,0.0,11,0.00,CLR,BKN,0.00,WeatherDisplay:10.37,2013-04-27 22:59:00,
2013-04-27 19:04:00,82.9,23.0,30.06,North,0,0.0,0.0,11,0.00,CLR,BKN,0.00,WeatherDisplay:10.37,2013-04-27 23:04:00,
2013-04-27 19:09:00,82.6,22.7,30.06,North,0,0.0,0.0,11,0.00,CLR,BKN,0.00,WeatherDisplay:10.37,2013-04-27 23:09:00,
2013-04-27 19:14:00,82.4,22.6,30.06,North,0,0.0,0.0,11,0.00,CLR,BKN,0.00,WeatherDisplay:10.37,2013-04-27 23:14:00,
2013-04-27 19:19:00,82.2,24.5,30.06,North,0,0.0,0.0,12,0.00,CLR,BKN,0.00,WeatherDisplay:10.37,2013-04-27 23:19:00,
2013-04-27 19:24:00,81.9,24.2,30.06,North,0,0.0,0.0,12,0.00,CLR,BKN,0.00,WeatherDisplay:10.37,2013-04-27 23:24:00,
2013-04-27 19:29:00,81.5,24.0,30.06,North,0,0.0,0.0,12,0.00,CLR,BKN,0.00,WeatherDisplay:10.37,2013-04-27 23:29:00,
2013-04-27 19:34:00,81.3,23.8,30.06,North,0,0.0,0.0,12,0.00,CLR,BKN,0.00,WeatherDisplay:10.37,2013-04-27 23:34:00,
2013-04-27 19:39:00,81.0,23.5,30.06,North,0,0.0,0.0,12,0.00,CLR,BKN,0.00,WeatherDisplay:10.37,2013-04-27 23:39:00,
2013-04-27 19:44:00,80.8,23.4,30.09,North,0,0.0,0.0,12,0.00,CLR,BKN,0.00,WeatherDisplay:10.37,2013-04-27 23:44:00,
2013-04-27 19:49:00,80.6,23.3,30.09,North,0,0.0,0.0,12,0.00,CLR,BKN,0.00,WeatherDisplay:10.37,2013-04-27 23:49:00,
2013-04-27 19:54:00,80.4,23.1,30.09,North,0,0.0,0.0,12,0.00,CLR,BKN,0.00,WeatherDisplay:10.37,2013-04-27 23:54:00,
2013-04-27 19:59:00,80.2,23.0,30.09,North,0,0.0,0.0,12,0.00,CLR,BKN,0.00,WeatherDisplay:10.37,2013-04-27 23:59:00,
2013-04-27 20:04:00,80.1,22.8,30.09,North,0,0.0,0.0,12,0.00,CLR,BKN,0.00,WeatherDisplay:10.37,2013-04-28 00:04:00,
2013-04-27 20:09:00,79.7,22.6,30.09,North,0,0.0,0.0,12,0.00,CLR,BKN,0.00,WeatherDisplay:10.37,2013-04-28 00:09:00,
2013-04-27 20:14:00,79.5,22.4,30.09,North,0,0.0,0.0,12,0.00,CLR,BKN,0.00,WeatherDisplay:10.37,2013-04-28 00:14:00,
2013-04-27 20:19:00,79.5,22.4,30.09,North,0,0.0,0.0,12,0.00,CLR,BKN,0.00,WeatherDisplay:10.37,2013-04-28 00:19:00,
2013-04-27 20:24:00,79.3,22.3,30.09,North,0,0.0,0.0,12,0.00,CLR,BKN,0.00,WeatherDisplay:10.37,2013-04-28 00:24:00,
2013-04-27 20:29:00,79.2,22.1,30.09,North,0,0.0,0.0,12,0.00,CLR,BKN,0.00,WeatherDisplay:10.37,2013-04-28 00:29:00,
2013-04-27 20:34:00,78.8,21.9,30.09,North,0,0.0,0.0,12,0.00,CLR,BKN,0.00,WeatherDisplay:10.37,2013-04-28 00:34:00,
2013-04-27 20:39:00,78.6,23.6,30.09,North,0,0.0,0.0,13,0.00,CLR,BKN,0.00,WeatherDisplay:10.37,2013-04-28 00:39:00,
2013-04-27 20:44:00,78.4,23.5,30.09,North,0,0.0,0.0,13,0.00,CLR,BKN,0.00,WeatherDisplay:10.37,2013-04-28 00:44:00,
2013-04-27 20:49:00,78.3,23.3,30.09,North,0,0.0,0.0,13,0.00,CLR,BKN,0.00,WeatherDisplay:10.37,2013-04-28 00:49:00,
2013-04-27 20:54:00,78.1,23.2,30.09,North,0,0.0,0.0,13,0.00,CLR,BKN,0.00,WeatherDisplay:10.37,2013-04-28 00:54:00,
2013-04-27 20:59:00,78.1,23.2,30.09,North,0,0.0,0.0,13,0.00,CLR,BKN,0.00,WeatherDisplay:10.37,2013-04-28 00:59:00,
2013-04-27 21:04:00,77.9,23.1,30.09,North,0,0.0,0.0,13,0.00,CLR,BKN,0.00,WeatherDisplay:10.37,2013-04-28 01:04:00,
2013-04-27 21:09:00,77.7,22.9,30.09,North,0,0.0,0.0,13,0.00,CLR,BKN,0.00,WeatherDisplay:10.37,2013-04-28 01:09:00,
2013-04-27 21:14:00,77.5,22.8,30.12,North,0,0.0,0.0,13,0.00,CLR,BKN,0.00,WeatherDisplay:10.37,2013-04-28 01:14:00,
2013-04-27 21:19:00,77.2,22.5,30.12,North,0,0.0,0.0,13,0.00,CLR,BKN,0.00,WeatherDisplay:10.37,2013-04-28 01:19:00,
2013-04-27 21:24:00,77.2,22.5,30.12,North,0,0.0,0.0,13,0.00,CLR,BKN,0.00,WeatherDisplay:10.37,2013-04-28 01:24:00,
2013-04-27 21:29:00,76.8,22.2,30.12,North,0,0.0,0.0,13,0.00,CLR,BKN,0.00,WeatherDisplay:10.37,2013-04-28 01:29:00,
2013-04-27 21:34:00,76.6,25.5,30.12,North,0,0.0,0.0,15,0.00,CLR,BKN,0.00,WeatherDisplay:10.37,2013-04-28 01:34:00,
2013-04-27 21:39:00,76.5,25.3,30.12,North,0,0.0,0.0,15,0.00,CLR,BKN,0.00,WeatherDisplay:10.37,2013-04-28 01:39:00,
2013-04-27 21:44:00,76.3,25.2,30.12,North,0,0.0,0.0,15,0.00,CLR,BKN,0.00,WeatherDisplay:10.37,2013-04-28 01:44:00,
2013-04-27 21:49:00,76.1,25.1,30.12,North,0,0.0,0.0,15,0.00,CLR,BKN,0.00,WeatherDisplay:10.37,2013-04-28 01:49:00,
2013-04-27 21:54:00,75.9,24.9,30.12,North,0,0.0,0.0,15,0.00,CLR,BKN,0.00,WeatherDisplay:10.37,2013-04-28 01:54:00,
2013-04-27 21:59:00,75.9,24.9,30.12,North,0,0.0,0.0,15,0.00,CLR,BKN,0.00,WeatherDisplay:10.37,2013-04-28 01:59:00,
2013-04-27 22:04:00,75.7,24.8,30.12,North,0,0.0,0.0,15,0.00,CLR,BKN,0.00,WeatherDisplay:10.37,2013-04-28 02:04:00,
2013-04-27 22:09:00,75.6,29.0,30.12,North,0,0.0,0.0,18,0.00,CLR,BKN,0.00,WeatherDisplay:10.37,2013-04-28 02:09:00,
2013-04-27 22:14:00,75.2,28.8,30.12,North,0,0.0,0.0,18,0.00,CLR,BKN,0.00,WeatherDisplay:10.37,2013-04-28 02:14:00,
2013-04-27 22:19:00,75.2,28.8,30.12,North,0,0.0,0.0,18,0.00,CLR,BKN,0.00,WeatherDisplay:10.37,2013-04-28 02:19:00,
2013-04-27 22:24:00,75.0,28.6,30.12,North,0,0.0,0.0,18,0.00,CLR,BKN,0.00,WeatherDisplay:10.37,2013-04-28 02:24:00,
2013-04-27 22:29:00,74.8,32.3,30.12,North,0,0.0,0.0,21,0.00,CLR,BKN,0.00,WeatherDisplay:10.37,2013-04-28 02:29:00,
2013-04-27 22:34:00,74.7,32.1,30.12,North,0,0.0,0.0,21,0.00,CLR,BKN,0.00,WeatherDisplay:10.37,2013-04-28 02:34:00,
2013-04-27 22:39:00,74.5,32.0,30.12,North,0,0.0,0.0,21,0.00,CLR,BKN,0.00,WeatherDisplay:10.37,2013-04-28 02:39:00,
2013-04-27 22:44:00,74.5,32.0,30.12,North,0,0.0,0.0,21,0.00,CLR,BKN,0.00,WeatherDisplay:10.37,2013-04-28 02:44:00,
2013-04-27 22:49:00,74.3,31.8,30.12,North,0,0.0,0.0,21,0.00,CLR,BKN,0.00,WeatherDisplay:10.37,2013-04-28 02:49:00,
2013-04-27 22:54:00,74.1,31.7,30.12,North,0,0.0,0.0,21,0.00,CLR,BKN,0.00,WeatherDisplay:10.37,2013-04-28 02:54:00,
2013-04-27 22:59:00,73.8,31.4,30.12,North,0,0.0,0.0,21,0.00,CLR,BKN,0.00,WeatherDisplay:10.37,2013-04-28 02:59:00,
2013-04-27 23:04:00,73.8,31.4,30.12,North,0,0.0,0.0,21,0.00,CLR,BKN,0.00,WeatherDisplay:10.37,2013-04-28 03:04:00,
2013-04-27 23:09:00,73.6,31.2,30.12,North,0,0.0,0.0,21,0.00,CLR,BKN,0.00,WeatherDisplay:10.37,2013-04-28 03:09:00,
2013-04-27 23:14:00,73.4,31.1,30.12,North,0,0.0,0.0,21,0.00,CLR,BKN,0.00,WeatherDisplay:10.37,2013-04-28 03:14:00,
2013-04-27 23:19:00,73.4,31.1,30.12,North,0,0.0,0.0,21,0.00,CLR,BKN,0.00,WeatherDisplay:10.37,2013-04-28 03:19:00,
2013-04-27 23:24:00,73.0,31.9,30.12,North,0,0.0,0.0,22,0.00,CLR,BKN,0.00,WeatherDisplay:10.37,2013-04-28 03:24:00,
2013-04-27 23:29:00,72.9,31.8,30.12,North,0,0.0,0.0,22,0.00,CLR,BKN,0.00,WeatherDisplay:10.37,2013-04-28 03:29:00,
2013-04-27 23:34:00,72.9,31.8,30.12,North,0,0.0,0.0,22,0.00,CLR,BKN,0.00,WeatherDisplay:10.37,2013-04-28 03:34:00,
2013-04-27 23:39:00,72.5,32.6,30.12,North,0,0.0,0.0,23,0.00,CLR,BKN,0.00,WeatherDisplay:10.37,2013-04-28 03:39:00,
2013-04-27 23:44:00,72.5,32.6,30.12,North,0,0.0,0.0,23,0.00,CLR,BKN,0.00,WeatherDisplay:10.37,2013-04-28 03:44:00,
2013-04-27 23:49:00,72.3,33.5,30.12,North,0,0.0,0.0,24,0.00,CLR,BKN,0.00,WeatherDisplay:10.37,2013-04-28 03:49:00,
2013-04-27 23:54:00,72.3,33.5,30.12,North,0,0.0,0.0,24,0.00,CLR,BKN,0.00,WeatherDisplay:10.37,2013-04-28 03:54:00,
2013-04-27 23:59:00,72.1,33.3,30.12,North,0,0.0,0.0,24,0.00,CLR,BKN,0.00,WeatherDisplay:10.37,2013-04-28 03:59:00,